Tracking 28790 objects as of 19-Apr-2024
HD Live streaming from Space Station
objects crossing your sky now

CZ-2C R/B

Track CZ-2C R/B now!
10-day predictions


NORAD ID: 39364
Int'l Code: 2013-059B
Perigee: 343.1 km
Apogee: 363.7 km
Inclination: 97.0 °
Period: 91.5 minutes
Semi major axis: 6724 km
RCS: Unknown
Launch date: October 29, 2013
Source: People's Republic of China (PRC)
Launch site: Taiyaun Space Center, China (TSC)

Note: This is a ROCKET BODY
Your satellite tracking list
Your tracking list is empty




NASA's NSSDC Master Catalog

Two Line Element Set (TLE):
1 39364U 13059B   24109.69495661  .00161857  00000-0  10938-2 0  9996
2 39364  97.0489 158.3871 0015266  45.0034 315.2465 15.74431744583847
Source of the keplerian elements: AFSPC